STARLINK-1653, 46352

Orbit data source: Space-Track

STARLINK-1653, 46352 is a payload satellite owned by SpaceX/Seattle (US) in LEO that was launched on Thu, 03 Sep 2020 UTC via an FALCON 9 launch vehicle from the Air Force Eastern Test Range (AFETR). Payload-class satellites include a variety of spacecraft equipped with specific instruments for various scientific and technological missions. These include communications satellites like Starlink; space stations such as the ISS; scientific satellites like the Hubble; Earth observation satellites from companies like Planet Labs, Umbra, and HawkEye 360; GPS; miniature CubeSats for education and research; and military/defense satellites.

Loading next visibility...
Identifier
46352, 2020-062AD
Orbit
LEO
Country
Flag of USUS
Related business
Manufacturer
SpaceX/Seattle
Mission
Partially operational Commercial Communications
Bus & Motor
STARLINK, Unknown motor
Mass
260 kg wet, ~248 kg dry
Launch date (UTC)
2020-09-03 (5 years ago)
Launch vehicle
FALCON 9
Launch site
Air Force Eastern Test Range (AFETR)
Object type
Payload
Rocket body
Debris
Shape & HBR
Box + 1 Pan, 10.1 m
Radar Cross Section
13.562 m², Large (>1 m²)

Expand to show TLE details & history
Last TLE update: 14 hours ago

TLE from 14 hours ago
0 STARLINK-1653
1 46352U 20062AD  25296.66671295  .01098477  00000-0  37874-1 0  9992
2 46352  53.0567 251.0185 0001398  84.2826 257.3022 15.26976077  5759
Epoch: 2025-10-23T16:00Z
TLE epoch observation values (Epoch: 2025-10-23T16:00:03.998Z)
Latitude
-14.79683°
Longitude
-32.71438°
Altitude
489.034 km
Speed
7.621 km/s
True Right ascension
15h 58m 29s
True Declination
-14° 42' 32"
Sunlit
Object was in daylight at epoch
Visualization orbit readout
Latitude
Unknown
Longitude
Unknown
Altitude
Unknown
Speed
Unknown
Apparent Right ascension
Unknown
Apparent Declination
Unknown
Sunlit
N/A
Visualization observer readout
Local Sidereal Time
00:46:55
Azimuth
Unknown
Elevation
Unknown
Doppler factor
Unknown
Orbital elements
Apogee altitude
486.09 km
Perigee altitude
484.171 km
Semi-major axis
6,863.268 km
Eccentricity
0.00014
Inclination
53.0567°
RAAN
251.0185°
Arg. of periapsis
84.2826°
True anomaly
257.28657°
Mean anomaly
257.3022°
Eccentric anomaly
257.29439°
Mean motion
3.81722 °/min
Orbital period
94.31 mins
BSTAR
0.037874
Loading maneuver chart data...
Computing Atmospheric mass density...
Loading historical data...
Loading historical data...
Loading historical data...
Loading historical data...
Loading historical data...
Loading historical data...
Loading historical data...

Documentation

Showing up to 5 results
|